Regional Weather Roundup
Issued by NWS Portland, ME

Current Version | Previous Version | Text Only | Print | Product List | Glossary Off
Versions: 1 2 3 4 5 6 7 8 9 10 11 12 13 14 15 16 17 18 19 20 21 22 23 24 25 26 27 28 29 30 31 32 33 34 35 36 37 38 39 40 41 42 43 44 45 46 47 48 49 50
693 ASUS41 KGYX 240405 RWRGYX WEATHER ROUNDUP FOR MAINE AND NEW HAMPSHIRE NATIONAL WEATHER SERVICE GRAY ME 1200 AM EDT SUN SEP 24 2017 MEZ002-005-006-010-012-015-018-020-021-024-026-027-029-240500- MAINE CITY SKY/WX TMP DP RH WIND PRES REMARKS PORTLAND CLEAR 64 59 83 W3 30.02S SANFORD CLEAR 58 57 97 CALM 30.03S BAR HARBOR CLEAR 59 58 96 CALM 30.02F WISCASSET CLEAR 60 57 89 CALM 30.03F ROCKLAND CLEAR 59 58 96 CALM 30.02F FRYEBURG CLEAR 60 60 100 NW3 30.05F LEWISTONAUBURN CLEAR 64 62 93 N3 30.03F AUGUSTA CLEAR 64 58 80 CALM 30.03S WATERVILLE CLEAR 62 58 86 CALM 30.00F BANGOR CLEAR 61 57 87 CALM 30.02S GREENVILLE N/A 66 62 87 NW5 30.05F MILLINOCKET CLEAR 64 63 96 W3 30.03S HOULTON CLEAR 58 58 100 CALM 30.00S PRESQUE ISLE MOCLDY 56 55 97 NW3 30.03S FRENCHVILLE CLEAR 63 57 81 SE6 30.02S CARIBOU CLEAR 61 57 87 CALM 30.02S $$ NHZ002-005-008-009-011-012-014-240500- NEW HAMPSHIRE CITY SKY/WX TMP DP RH WIND PRES REMARKS ROCHESTER CLEAR 63 58 83 CALM 30.03S NASHUA CLEAR 64 62 93 CALM 30.04F MANCHESTER CLEAR 66 63 90 CALM 30.03S CONCORD CLEAR 62 59 90 CALM 30.05S LACONIA CLEAR 63 61 93 SW3 30.06S PLYMOUTH FAIR 60 58 94 CALM 30.07S BERLIN CLEAR 57 54 89 CALM 30.10F WHITEFIELD CLEAR 56 53 90 CALM 30.10F JAFFREY CLEAR 60 59 96 CALM 30.09S KEENE CLEAR 60 59 96 CALM 30.08 LEBANON CLEAR 61 59 93 NE7 30.08R MT WASHINGTON CLEAR 59 52 77 N8 N/A $$ VTZ005-007-008-240500- VERMONT CITY SKY/WX TMP DP RH WIND PRES REMARKS ST JOHNSBURY N/A 63 63 100 MISG 30.07F MONTPELIER CLEAR 61 61 100 CALM 30.14S BURLINGTON CLEAR 66 63 90 CALM 30.07S $$ MAZ007-012-024-CTZ003-RIZ002-NYZ038-NYZ072-240500- SOUTHERN NEW ENGLAND AND NY CITY SKY/WX TMP DP RH WIND PRES REMARKS BOSTON PTCLDY 62 61 96 CALM 30.03F WORCESTER CLEAR 68 53 58 NW5 30.08S NANTUCKET FOG 62 62 100 N12 30.00F VSB 1/2 PROVIDENCE CLEAR 64 64 100 NW3 30.04S HARTFORD PTCLDY 63 59 87 NW3 30.05S ALBANY PTCLDY 66 60 81 CALM 30.08S NEW YORK CITY CLEAR 76 57 51 CALM 30.03S $$ ANZ081-ANZ082-ANZ150-NHZ014-MEZ023>029-240500- COASTAL MARINE OBSERVATIONS STATION/POSITION TIME TEMP WIND PRES WAVE AIR SEA DIR/SP/G HT/PER (UTC) (F) (DEG/KT/KT) (MB) (FT/S) MOUNT DESERT ROC 0400 58 230/ 8/ 9 1016.9S MATINICUS ROCK 0300 60 250/ 9/ 9 1016.5R ISLE OF SHOALS 0300 63 240/ 6/ 6 1016.8R JEFFREYS LEDGE 0336 61 N/A 4/ 7 GEORGES BANK BUO 0250 75 75 1013.0 6/12 $$ .............KEY.............. WCI - WIND CHILL TC - TEMPERATURE IN CELSIUS VSB - VISIBILITY IN MILES HX - HEAT INDEX FAIR- INDICATES FEW OR NO CLOUDS BELOW 12,000 FT, WITH NO SIGNIFICANT WEATHER AND/OR OBSTRUCTIONS TO VISIBILITY.

USA.gov is the U.S. government's official web portal to all federal, state and local government web resources and services.